Time,TemperatureF,DewpointF,PressureIn,WindDirection,WindDirectionDegrees,WindSpeedMPH,WindSpeedGustMPH,Humidity,HourlyPrecipIn,Conditions,Clouds,dailyrainin,SoftwareType,DateUTC
2013-05-06 00:14:00,54.1,49.0,30.18,East,81,0.0,0.0,84,0.00,,,0.00,weatherlink.com 1.10,2013-05-06 04:14:00,
2013-05-06 00:31:00,54.0,50.0,30.18,SSE,148,1.0,1.0,85,0.00,,,0.00,weatherlink.com 1.10,2013-05-06 04:31:00,
2013-05-06 00:49:00,53.9,50.0,30.18,SE,136,1.0,1.0,86,0.00,,,0.00,weatherlink.com 1.10,2013-05-06 04:49:00,
2013-05-06 01:06:00,53.4,50.0,30.19,SE,137,0.0,0.0,87,0.00,,,0.00,weatherlink.com 1.10,2013-05-06 05:06:00,
2013-05-06 01:24:00,53.3,50.0,30.18,SE,137,0.0,0.0,88,0.00,,,0.00,weatherlink.com 1.10,2013-05-06 05:24:00,
2013-05-06 01:42:00,53.5,50.0,30.18,SE,134,0.0,0.0,87,0.00,,,0.00,weatherlink.com 1.10,2013-05-06 05:42:00,
2013-05-06 02:00:00,53.6,49.0,30.17,East,85,1.0,1.0,85,0.00,,,0.00,weatherlink.com 1.10,2013-05-06 06:00:00,
2013-05-06 02:17:00,53.9,49.0,30.16,ESE,106,0.0,1.0,84,0.00,,,0.00,weatherlink.com 1.10,2013-05-06 06:17:00,
2013-05-06 02:36:00,53.4,49.0,30.16,ESE,106,0.0,0.0,85,0.00,,,0.00,weatherlink.com 1.10,2013-05-06 06:36:00,
2013-05-06 02:53:00,52.9,49.0,30.15,SE,131,0.0,1.0,86,0.00,,,0.00,weatherlink.com 1.10,2013-05-06 06:53:00,
2013-05-06 03:11:00,52.5,49.0,30.15,SE,131,0.0,0.0,87,0.00,,,0.00,weatherlink.com 1.10,2013-05-06 07:11:00,
2013-05-06 03:28:00,52.6,49.0,30.14,SE,127,0.0,1.0,87,0.00,,,0.00,weatherlink.com 1.10,2013-05-06 07:28:00,
2013-05-06 03:47:00,53.1,49.0,30.14,NNW,338,0.0,1.0,86,0.00,,,0.00,weatherlink.com 1.10,2013-05-06 07:47:00,
2013-05-06 04:04:00,53.7,49.0,30.14,NE,56,0.0,1.0,84,0.00,,,0.00,weatherlink.com 1.10,2013-05-06 08:04:00,
2013-05-06 04:23:00,54.2,49.0,30.15,NNE,26,0.0,3.0,82,0.00,,,0.00,weatherlink.com 1.10,2013-05-06 08:23:00,
2013-05-06 04:40:00,54.4,49.0,30.14,North,6,1.0,4.0,83,0.00,,,0.00,weatherlink.com 1.10,2013-05-06 08:40:00,
2013-05-06 04:58:00,54.6,50.0,30.14,NE,45,0.0,5.0,85,0.00,,,0.00,weatherlink.com 1.10,2013-05-06 08:58:00,
2013-05-06 05:16:00,54.3,51.0,30.14,NE,44,0.0,3.0,89,0.02,,,0.02,weatherlink.com 1.10,2013-05-06 09:16:00,
2013-05-06 05:34:00,53.7,52.0,30.14,East,81,0.0,1.0,92,0.03,,,0.03,weatherlink.com 1.10,2013-05-06 09:34:00,
2013-05-06 05:51:00,53.4,52.0,30.15,North,359,0.0,1.0,93,0.05,,,0.05,weatherlink.com 1.10,2013-05-06 09:51:00,
2013-05-06 06:10:00,53.2,52.0,30.14,NE,39,0.0,1.0,94,0.05,,,0.06,weatherlink.com 1.10,2013-05-06 10:10:00,
2013-05-06 06:27:00,53.2,52.0,30.15,North,356,0.0,1.0,95,0.04,,,0.07,weatherlink.com 1.10,2013-05-06 10:27:00,
2013-05-06 06:45:00,53.3,52.0,30.15,East,82,0.0,1.0,95,0.02,,,0.07,weatherlink.com 1.10,2013-05-06 10:45:00,
2013-05-06 07:03:00,53.4,52.0,30.16,NE,50,0.0,1.0,95,0.01,,,0.07,weatherlink.com 1.10,2013-05-06 11:03:00,
2013-05-06 07:21:00,53.9,53.0,30.16,NE,39,0.0,1.0,96,0.01,,,0.07,weatherlink.com 1.10,2013-05-06 11:21:00,
2013-05-06 07:38:00,54.4,53.0,30.16,ENE,58,0.0,1.0,96,0.00,,,0.07,weatherlink.com 1.10,2013-05-06 11:38:00,
2013-05-06 07:57:00,54.8,54.0,30.17,NNW,347,0.0,2.0,96,0.00,,,0.07,weatherlink.com 1.10,2013-05-06 11:57:00,
2013-05-06 08:15:00,55.1,54.0,30.17,North,357,3.0,5.0,96,0.01,,,0.08,weatherlink.com 1.10,2013-05-06 12:15:00,
2013-05-06 08:32:00,55.2,54.0,30.17,NNW,345,0.0,2.0,95,0.02,,,0.09,weatherlink.com 1.10,2013-05-06 12:32:00,
2013-05-06 08:51:00,55.2,54.0,30.18,NNE,30,0.0,2.0,95,0.03,,,0.10,weatherlink.com 1.10,2013-05-06 12:51:00,
2013-05-06 09:26:00,55.5,54.0,30.19,WNW,293,0.0,2.0,95,0.10,,,0.18,weatherlink.com 1.10,2013-05-06 13:26:00,
2013-05-06 09:43:00,55.8,54.0,30.19,North,11,2.0,5.0,95,0.11,,,0.20,weatherlink.com 1.10,2013-05-06 13:43:00,
2013-05-06 10:02:00,56.7,55.0,30.19,NE,34,1.0,5.0,95,0.08,,,0.20,weatherlink.com 1.10,2013-05-06 14:02:00,
2013-05-06 10:19:00,56.8,55.0,30.19,NE,41,0.0,4.0,94,0.03,,,0.20,weatherlink.com 1.10,2013-05-06 14:19:00,
2013-05-06 10:37:00,57.0,55.0,30.20,NNE,27,0.0,4.0,93,0.02,,,0.21,weatherlink.com 1.10,2013-05-06 14:37:00,
2013-05-06 10:54:00,57.8,56.0,30.20,NNE,26,4.0,6.0,93,0.01,,,0.21,weatherlink.com 1.10,2013-05-06 14:54:00,
2013-05-06 11:13:00,59.8,57.0,30.20,ENE,70,1.0,8.0,90,0.01,,,0.21,weatherlink.com 1.10,2013-05-06 15:13:00,
2013-05-06 11:30:00,63.6,59.0,30.19,NNE,23,4.0,6.0,86,0.00,,,0.21,weatherlink.com 1.10,2013-05-06 15:30:00,
2013-05-06 11:48:00,64.2,57.0,30.19,North,6,10.0,10.0,78,0.00,,,0.21,weatherlink.com 1.10,2013-05-06 15:48:00,
2013-05-06 12:06:00,64.2,57.0,30.19,East,95,4.0,10.0,77,0.00,,,0.21,weatherlink.com 1.10,2013-05-06 16:06:00,
2013-05-06 12:24:00,64.9,56.0,30.19,ESE,107,0.0,5.0,74,0.00,,,0.21,weatherlink.com 1.10,2013-05-06 16:24:00,
2013-05-06 12:42:00,64.8,57.0,30.19,ENE,75,2.0,8.0,76,0.00,,,0.21,weatherlink.com 1.10,2013-05-06 16:42:00,
2013-05-06 13:00:00,65.6,57.0,30.18,NE,52,4.0,12.0,74,0.00,,,0.21,weatherlink.com 1.10,2013-05-06 17:00:00,
2013-05-06 13:17:00,66.4,56.0,30.19,NE,37,4.0,9.0,70,0.00,,,0.21,weatherlink.com 1.10,2013-05-06 17:17:00,
2013-05-06 13:35:00,67.1,56.0,30.18,SW,221,2.0,5.0,67,0.00,,,0.21,weatherlink.com 1.10,2013-05-06 17:35:00,
2013-05-06 13:54:00,67.0,56.0,30.18,NE,40,5.0,7.0,69,0.00,,,0.21,weatherlink.com 1.10,2013-05-06 17:54:00,
2013-05-06 14:11:00,65.6,56.0,30.18,West,277,2.0,6.0,71,0.00,,,0.21,weatherlink.com 1.10,2013-05-06 18:11:00,
2013-05-06 14:29:00,67.1,57.0,30.18,East,95,5.0,10.0,71,0.00,,,0.21,weatherlink.com 1.10,2013-05-06 18:29:00,
2013-05-06 14:46:00,68.0,56.0,30.18,SW,224,2.0,8.0,66,0.00,,,0.21,weatherlink.com 1.10,2013-05-06 18:46:00,
2013-05-06 15:04:00,67.6,55.0,30.18,SE,129,2.0,9.0,64,0.00,,,0.21,weatherlink.com 1.10,2013-05-06 19:04:00,
2013-05-06 15:21:00,66.9,56.0,30.18,NNE,27,5.0,7.0,69,0.00,,,0.21,weatherlink.com 1.10,2013-05-06 19:21:00,
2013-05-06 15:40:00,66.3,57.0,30.17,ESE,110,0.0,9.0,71,0.00,,,0.21,weatherlink.com 1.10,2013-05-06 19:40:00,
2013-05-06 15:57:00,65.6,56.0,30.17,SE,142,1.0,11.0,71,0.00,,,0.21,weatherlink.com 1.10,2013-05-06 19:57:00,
2013-05-06 16:15:00,65.8,56.0,30.16,ESE,110,2.0,4.0,71,0.00,,,0.21,weatherlink.com 1.10,2013-05-06 20:15:00,
2013-05-06 16:32:00,64.6,56.0,30.16,East,101,1.0,4.0,73,0.00,,,0.21,weatherlink.com 1.10,2013-05-06 20:32:00,
2013-05-06 16:51:00,64.6,55.0,30.15,NNE,15,2.0,10.0,71,0.00,,,0.21,weatherlink.com 1.10,2013-05-06 20:51:00,
2013-05-06 17:08:00,64.9,56.0,30.15,SE,129,0.0,7.0,72,0.00,,,0.21,weatherlink.com 1.10,2013-05-06 21:08:00,
2013-05-06 17:26:00,64.5,56.0,30.15,North,3,0.0,5.0,74,0.00,,,0.21,weatherlink.com 1.10,2013-05-06 21:26:00,
2013-05-06 17:44:00,64.9,56.0,30.15,ESE,118,0.0,8.0,74,0.00,,,0.21,weatherlink.com 1.10,2013-05-06 21:44:00,
2013-05-06 18:02:00,64.5,56.0,30.15,ENE,70,2.0,9.0,73,0.00,,,0.21,weatherlink.com 1.10,2013-05-06 22:02:00,
2013-05-06 18:20:00,65.8,57.0,30.16,North,356,7.0,9.0,72,0.00,,,0.21,weatherlink.com 1.10,2013-05-06 22:20:00,
2013-05-06 18:37:00,65.5,56.0,30.16,NE,50,1.0,6.0,72,0.00,,,0.21,weatherlink.com 1.10,2013-05-06 22:37:00,
2013-05-06 18:56:00,66.3,55.0,30.16,South,184,5.0,7.0,68,0.00,,,0.21,weatherlink.com 1.10,2013-05-06 22:56:00,
2013-05-06 19:13:00,65.4,57.0,30.17,NE,36,0.0,3.0,73,0.00,,,0.21,weatherlink.com 1.10,2013-05-06 23:13:00,
2013-05-06 19:31:00,64.8,55.0,30.17,East,86,0.0,3.0,71,0.00,,,0.21,weatherlink.com 1.10,2013-05-06 23:31:00,
2013-05-06 19:49:00,64.4,56.0,30.17,NW,315,2.0,4.0,73,0.00,,,0.21,weatherlink.com 1.10,2013-05-06 23:49:00,
2013-05-06 20:07:00,63.8,55.0,30.18,East,93,1.0,6.0,74,0.00,,,0.21,weatherlink.com 1.10,2013-05-07 00:07:00,
2013-05-06 20:24:00,63.4,55.0,30.18,SSW,208,1.0,7.0,74,0.00,,,0.21,weatherlink.com 1.10,2013-05-07 00:24:00,
2013-05-06 20:43:00,63.0,56.0,30.19,NE,39,0.0,4.0,77,0.00,,,0.21,weatherlink.com 1.10,2013-05-07 00:43:00,
2013-05-06 21:00:00,62.7,55.0,30.19,SE,132,1.0,6.0,77,0.00,,,0.21,weatherlink.com 1.10,2013-05-07 01:00:00,
2013-05-06 21:17:00,62.3,55.0,30.20,NNE,23,1.0,7.0,78,0.00,,,0.21,weatherlink.com 1.10,2013-05-07 01:17:00,
2013-05-06 21:36:00,61.3,55.0,30.21,NNE,14,0.0,2.0,80,0.00,,,0.21,weatherlink.com 1.10,2013-05-07 01:36:00,
2013-05-06 21:53:00,60.3,55.0,30.21,ESE,103,0.0,0.0,82,0.00,,,0.21,weatherlink.com 1.10,2013-05-07 01:53:00,
2013-05-06 22:11:00,59.3,55.0,30.21,ESE,103,0.0,0.0,84,0.00,,,0.21,weatherlink.com 1.10,2013-05-07 02:11:00,
2013-05-06 22:29:00,58.5,54.0,30.21,ESE,103,0.0,0.0,86,0.00,,,0.21,weatherlink.com 1.10,2013-05-07 02:29:00,
2013-05-06 22:46:00,57.8,54.0,30.22,ESE,103,0.0,0.0,88,0.00,,,0.21,weatherlink.com 1.10,2013-05-07 02:46:00,
2013-05-06 23:05:00,57.4,54.0,30.22,ESE,103,0.0,0.0,89,0.00,,,0.21,weatherlink.com 1.10,2013-05-07 03:05:00,
2013-05-06 23:22:00,57.8,55.0,30.21,East,82,0.0,0.0,89,0.00,,,0.21,weatherlink.com 1.10,2013-05-07 03:22:00,
2013-05-06 23:40:00,57.9,55.0,30.21,East,82,0.0,0.0,89,0.00,,,0.21,weatherlink.com 1.10,2013-05-07 03:40:00,
2013-05-06 23:57:00,58.2,55.0,30.21,East,82,0.0,0.0,89,0.00,,,0.21,weatherlink.com 1.10,2013-05-07 03:57:00,